Regional Weather Roundup
Issued by NWS Wilmington, NC

Home | Current Version | Previous Version | Text Only | Print | Product List | Glossary On
Versions: 1 2 3 4 5 6 7 8 9 10 11 12 13 14 15 16 17 18 19 20 21 22 23 24 25 26 27 28 29 30 31 32 33 34 35 36 37 38 39 40 41 42 43 44 45 46 47 48 49 50
000
ASUS42 KILM 020613
RWRILM
RWRILM
REGIONAL HOURLY WEATHER ROUNDUP
NATIONAL WEATHER SERVICE WILMINGTON NC
200 AM EDT THU JUL 02 2015

NOTE: "FAIR" INDICATES FEW OR NO CLOUDS BELOW 12,000 FEET WITH NO
SIGNIFICANT WEATHER AND/OR OBSTRUCTIONS TO VISIBILITY.

...............WFO WILMINGTON COUNTY WARNING AREA...............

......COASTAL NC AND SC COUNTIES......

CITY           SKY/WX    TMP DP  RH WIND       PRES   REMARKS
WILMINGTON     CLEAR     78  74  87 SW9       29.97F
N MYRTLE BEACH CLEAR     79  71  76 SW7       29.97F
MYRTLE BEACH   CLEAR     79  70  73 SW7       30.00F

......INLAND NC AND SC COUNTIES.......

CITY           SKY/WX    TMP DP  RH WIND       PRES   REMARKS
LUMBERTON      MOCLDY    77  72  84 SW8       29.95F
ELIZABETHTOWN  NOT AVBL
WHITEVILLE     NOT AVBL
FLORENCE       MOCLDY    77  71  82 SW7       29.97F
DARLINGTON     CLOUDY    75  70  83 SW7       29.97F

....................REST OF NORTH CAROLINA......................

.........EASTERN NC.........

CITY           SKY/WX    TMP DP  RH WIND       PRES   REMARKS
CAPE HATTERAS  PTCLDY    79  75  87 W9        29.96S
JACKSONVILLE   CLEAR     73  66  78 SW6       29.96F
MOREHEAD CITY  CLEAR     79  75  87 SW7       29.96F
KENANSVILLE    NOT AVBL
NEW BERN       CLEAR     74  71  91 SW5       29.96F
ELIZABETH CITY PTCLDY    76  72  87 SW7       29.93F

.........CENTRAL NC.........

CITY           SKY/WX    TMP DP  RH WIND       PRES   REMARKS
RALEIGH DURHAM CLOUDY    77  70  79 SW8       29.93F
ROCKY MOUNT    CLOUDY    77  72  84 SW6       29.93S
ROANOKE RAPIDS NOT AVBL
FAYETTEVILLE   MOCLDY    77  72  84 SW8       29.94F
HOFFMAN        CLOUDY    77  71  81 SW8       29.99S

.........WESTERN NC.........

CITY           SKY/WX    TMP DP  RH WIND       PRES   REMARKS
CHARLOTTE      LGT RAIN  74  66  76 W7        29.97S
GREENSBORO     CLOUDY    73  68  84 SW7       29.95S
HICKORY        NOT AVBL
BOONE          NOT AVBL
ASHEVILLE      NOT AVBL

.....................REST OF SOUTH CAROLINA.....................

.........EASTERN SC.........

CITY           SKY/WX    TMP DP  RH WIND       PRES   REMARKS
CHARLESTON     PTCLDY    78  73  84 SW10      30.00S
BEAUFORT MCAS  MOCLDY    73  68  84 W9        30.02F
HILTON HEAD    MOCLDY    79  70  73 S7        30.04F

.........CENTRAL SC.........

CITY           SKY/WX    TMP DP  RH WIND       PRES   REMARKS
COLUMBIA       CLOUDY    76  65  68 SW3       29.98F
ORANGEBURG     CLOUDY    75  71  87 SW3       29.99F
SUMTER SHAW    CLOUDY    76  70  81 W7        29.97

.........WESTERN SC.........

CITY           SKY/WX    TMP DP  RH WIND       PRES   REMARKS
GREENVILLE     NOT AVBL
ROCK HILL      CLOUDY    74  66  76 SW7       29.98S
ANDERSON       CLOUDY    70  68  93 W3        30.02F
CLEMSON        NOT AVBL
GREENWOOD      CLOUDY    69  68  96 SW6       30.02F


...................COASTAL AND OFFSHORE REPORTS..................

................LOCAL PIERS AND NC RESERVE................


STATION/POSITION TIME  SKY/WX   TEMP    WIND        PRES    VSBY
                                AIR SEA DIR/SP/G
                 (UTC)          (F)     (DEG/KT/KT) (MB)    (MI)
JOHNY MRCER PIER 0500            79 81  210/ 10/ 12 1014.5F
NC RESRV MASNBRO NOT AVBL
OCEAN CREST PIER NOT AVBL
SPRINGMAID  PIER 0500            80 83  210/ 10/ 13 1015.4F


................COASTAL AND OFFSHORE BUOYS................


STATION/POSITION TIME  SKY/WX   TEMP    WIND        PRES    VSBY
                                AIR SEA DIR/SP/G
                 (UTC)          (F)     (DEG/KT/KT) (MB)    (MI)
DIMNDSHOAL 41025 0550            80 82  250/ 17/ 19 1014.2F
WVE H/P(F/S)=  5/ 6 WND WVE H/P(F/S)=  5/ 6 SWL H/P/D(F/S/D)=  2/190/ 8

CAPE LOOKOUT     0500            79     250/ 11/ 17 1014.8F
ONSLOW BAY 41036 NOT AVBL
5 WRITEBCH 41038 0508            80 80  220/ 12/ 17 1014.9F
MASONBORO  41110 0519               80                N/A
WVE H/P(F/S)=  3/ 8 WND WVE H/P(F/S)=  3/ 8

WILM HARBR 41108 0511               81                N/A
WVE H/P(F/S)=  5/ 7 WND WVE H/P(F/S)=  5/ 7

27WRITEBCH 41037 0500               80  240/ 14/ 16   N/A
FRYING PAN 41013 0550            81 80  220/ 16/ 17 1015.9F
WVE H/P(F/S)=  5/ 6 WND WVE H/P(F/S)=  3/ 6 SWL H/P/D(F/S/D)=  3/150/ 7

SUNST NRSH 41024 0508            83     250/ 14/ 16 1015.0F
CAPRS NRSH 41029 0508            83     250/  8/ 12 1016.3F
EDISTO     41004 0550            81 82  240/ 12/ 14 1015.7F
WVE H/P(F/S)=  4/ 8 WND WVE H/P(F/S)=  3/ 4 SWL H/P/D(F/S/D)=  3/ 8



..........OFFSHORE BUOYS BEYOND 100 NM OFFSHORE...........
.....IN A TRIANGLE---HAT TO BERMUDA TO BAHAMAS TO HAT.....


STATION/POSITION TIME  SKY/WX   TEMP    WIND        PRES    VSBY
                                AIR SEA DIR/SP/G
                 (UTC)          (F)     (DEG/KT/KT) (MB)    (MI)
150E HAT   41001 NOT AVBL
W BERMUDA  41048 0550            81 80  190/ 14/ 16 1021.4F
WVE H/P(F/S)=  4/ 7 WND WVE H/P(F/S)=  3/ 7 SWL H/P/D(F/S/D)=  3/180/ 8

ATLANTIC S 41049 0550            80 83  120/  6/  8 1023.3F
WVE H/P(F/S)=  4/ 8 WND WVE H/P(F/S)=  2/ 4 SWL H/P/D(F/S/D)=  3/130/ 8

E BAHAMAS  41046 0550            82 83  100/ 14/ 16 1021.0F
WVE H/P(F/S)=  6/ 9 WND WVE H/P(F/S)=  3/ 5 SWL H/P/D(F/S/D)=  5/130/ 9

NE BAHAMAS 41047 0550            82 83  160/  8/ 10 1021.6F
WVE H/P(F/S)=  4/ 9 WND WVE H/P(F/S)=  2/ 4 SWL H/P/D(F/S/D)=  5/120/ 9

120E CANVRL41010 0520            84 84  210/ 10/ 12 1020.1F

END



USA.gov is the U.S. government's official web portal to all federal, state and local government web resources and services.